User: anonymous   Login
Location: Chakepay
(13.3931°S, 72.1925°W)
Time: 11:29:46
(UTC+00:00)
Language:

Cosmos 1697 Rocket - Orbit

View from above orbital plane
View from above orbital plane
View from above satellite
View from above satellite

Ground track
Ground track

The orbit data is extracted from the following two-line orbital elements,

1 16182U 85097B   20020.85597720 -.00000119 +00000-0 -36120-4 0  9993
2 16182 071.0017 174.1539 0005424 062.2655 041.8657 14.16246742770111
Epoch (UTC): 20 January 2020 20:32:36
Eccentricity: 0.0005424
inclination: 71.0017°
perigee height: 834 km
apogee height: 842 km
right ascension of ascending node: 174.1539°
argument of perigee: 62.2655°
revolutions per day: 14.16246742
mean anomaly at epoch: 41.8657°
orbit number at epoch: 77011

The dashed part of the orbit path shows where the satellite is in the earth's shadow,  

DLR